Satellite: NOAA-12
Catalog number: 21263
Epoch time: 12348.52239266
Element set: 645
Inclination: 098.7158 deg
RA of node: 009.2310 deg
Eccentricity: 0.0014599
Arg of perigee: 042.4777 deg
Mean anomaly: 317.7530 deg
Mean motion: 14.25535927 rev/day
Decay rate: 3.5e-07 rev/day^2
Epoch rev: 12210
Checksum: 291
Satellite: MET-3/5
Catalog number: 21655
Epoch time: 12348.81296030
Element set: 572
Inclination: 082.5560 deg
RA of node: 025.2770 deg
Eccentricity: 0.0012641
Arg of perigee: 229.1228 deg
Mean anomaly: 130.8800 deg
Mean motion: 13.17043531 rev/day
Decay rate: 3.7e-07 rev/day^2
Epoch rev: 2553
Checksum: 261
Satellite: MET-2/21
Catalog number: 22782
Epoch time: 12348.12673964
Element set: 608
Inclination: 082.5485 deg
RA of node: 250.5287 deg
Eccentricity: 0.0023080
Arg of perigee: 014.7704 deg
Mean anomaly: 345.4132 deg
Mean motion: 13.83696043 rev/day
Decay rate: -5.0e-08 rev/day^2
Epoch rev: 97391
Checksum: 305
Satellite: OKEAN-4
Catalog number: 23317
Epoch time: 12348.93180832
Element set: 82
Inclination: 082.5412 deg
RA of node: 223.1154 deg
Eccentricity: 0.0022807
Arg of perigee: 115.5441 deg
Mean anomaly: 244.8136 deg
Mean motion: 14.84152198 rev/day
Decay rate: 4.9e-07 rev/day^2
Epoch rev: 98146
Checksum: 285
Satellite: NOAA-14
Catalog number: 23455
Epoch time: 12348.44092602
Element set: 126
Inclination: 098.8193 deg
RA of node: 069.5987 deg
Eccentricity: 0.0009519
Arg of perigee: 161.3277 deg
Mean anomaly: 198.8247 deg
Mean motion: 14.13885022 rev/day
Decay rate: -3.8e-07 rev/day^2
Epoch rev: 92612
Checksum: 327
Satellite: NOAA-15
Catalog number: 25338
Epoch time: 12348.30116990
Element set: 525
Inclination: 098.7061 deg
RA of node: 333.6882 deg
Eccentricity: 0.0010024
Arg of perigee: 311.7079 deg
Mean anomaly: 048.3265 deg
Mean motion: 14.25156893 rev/day
Decay rate: 9.9e-07 rev/day^2
Epoch rev: 75836
Checksum: 315
Satellite: RESURS
Catalog number: 25394
Epoch time: 12348.96115606
Element set: 257
Inclination: 098.3377 deg
RA of node: 327.9075 deg
Eccentricity: 0.0002351
Arg of perigee: 071.1076 deg
Mean anomaly: 289.0358 deg
Mean motion: 14.24312868 rev/day
Decay rate: 2.4e-07 rev/day^2
Epoch rev: 74999
Checksum: 320
Satellite: FENGYUN1
Catalog number: 25730
Epoch time: 12348.21110515
Element set: 761
Inclination: 098.8604 deg
RA of node: 304.2458 deg
Eccentricity: 0.0020404
Arg of perigee: 211.8967 deg
Mean anomaly: 148.0972 deg
Mean motion: 14.09923005 rev/day
Decay rate: 1.233e-05 rev/day^2
Epoch rev: 69983
Checksum: 287
Satellite: OKEAN-0
Catalog number: 25860
Epoch time: 12347.55383213
Element set: 813
Inclination: 097.9612 deg
RA of node: 306.8214 deg
Eccentricity: 0.0001865
Arg of perigee: 054.0098 deg
Mean anomaly: 306.1283 deg
Mean motion: 14.74418614 rev/day
Decay rate: 2.84e-06 rev/day^2
Epoch rev: 72085
Checksum: 293
Satellite: NOAA-16
Catalog number: 26536
Epoch time: 12348.28660015
Element set: 4
Inclination: 099.0714 deg
RA of node: 032.9667 deg
Eccentricity: 0.0009855
Arg of perigee: 301.5993 deg
Mean anomaly: 058.4237 deg
Mean motion: 14.12815757 rev/day
Decay rate: -9.7e-07 rev/day^2
Epoch rev: 63032
Checksum: 311
Satellite: NOAA-17
Catalog number: 27453
Epoch time: 12348.41841533
Element set: 947
Inclination: 098.3225 deg
RA of node: 006.2758 deg
Eccentricity: 0.0011525
Arg of perigee: 356.0515 deg
Mean anomaly: 004.0571 deg
Mean motion: 14.24519948 rev/day
Decay rate: 1.31e-06 rev/day^2
Epoch rev: 54427
Checksum: 293
Satellite: NOAA-18
Catalog number: 28654
Epoch time: 12348.45220661
Element set: 429
Inclination: 099.0720 deg
RA of node: 308.2639 deg
Eccentricity: 0.0014507
Arg of perigee: 013.9536 deg
Mean anomaly: 346.2032 deg
Mean motion: 14.11745263 rev/day
Decay rate: 3.74e-06 rev/day^2
Epoch rev: 38985
Checksum: 306
Satellite: NOAA-19
Catalog number: 33591
Epoch time: 12348.42949659
Element set: 614
Inclination: 098.8828 deg
RA of node: 286.1507 deg
Eccentricity: 0.0013320
Arg of perigee: 233.5481 deg
Mean anomaly: 126.4461 deg
Mean motion: 14.11430698 rev/day
Decay rate: -1.00e-06 rev/day^2
Epoch rev: 19829
Checksum: 317
/EX
SB KEPS @ AMSAT $ORB12348.M
Orbital Elements 12348.MISC
HR AMSAT ORBITAL ELEMENTS FOR MANNED AND MISCELLANEOUS SATELLITES
FROM WA5QGD FORT WORTH,TX December 13, 2012
BID: ORB12348.M
TO ALL RADIO AMATEURS BT
Satellite: HUBBLE
Catalog number: 20580
Epoch time: 12348.43443881
Element set: 131
Inclination: 028.4690 deg
RA of node: 050.0412 deg
Eccentricity: 0.0003684
Arg of perigee: 168.0913 deg
Mean anomaly: 191.9763 deg
Mean motion: 15.03115584 rev/day
Decay rate: 1.274e-05 rev/day^2
Epoch rev: 4171
Checksum: 267
Satellite: ISS
Catalog number: 25544
Epoch time: 12348.91595993
Element set: 827
Inclination: 051.6491 deg
RA of node: 308.6987 deg
Eccentricity: 0.0016530
Arg of perigee: 038.5215 deg
Mean anomaly: 355.3363 deg
Mean motion: 15.52062288 rev/day
Decay rate: 8.193e-05 rev/day^2
Epoch rev: 80593
Checksum: 332
Satellite: CO-58
Catalog number: 28895
Epoch time: 12348.13897804
Element set: 352
Inclination: 097.8894 deg
RA of node: 206.3081 deg
Eccentricity: 0.0016922
Arg of perigee: 310.2743 deg
Mean anomaly: 049.6970 deg
Mean motion: 14.60886148 rev/day
Decay rate: 4.41e-06 rev/day^2
Epoch rev: 37978
Checksum: 352
Satellite: FALCON
Catalog number: 30776
Epoch time: 12347.98484564
Element set: 506
Inclination: 035.4357 deg
RA of node: 263.5839 deg
Eccentricity: 0.0000382
Arg of perigee: 055.0867 deg
Mean anomaly: 304.9901 deg
Mean motion: 15.09089649 rev/day
Decay rate: 2.865e-05 rev/day^2
Epoch rev: 31726
Checksum: 331
Satellite: MAST
Catalog number: 31126
Epoch time: 12348.04514747
Element set: 631
Inclination: 097.8739 deg
RA of node: 348.7030 deg
Eccentricity: 0.0092470
Arg of perigee: 273.4800 deg
Mean anomaly: 085.5815 deg
Mean motion: 14.54377069 rev/day
Decay rate: 3.96e-06 rev/day^2
Epoch rev: 30026
Checksum: 303
Satellite: CAPE1
Catalog number: 31130
Epoch time: 12348.57143171
Element set: 643
Inclination: 097.8857 deg
RA of node: 345.5180 deg
Eccentricity: 0.0100249
Arg of perigee: 286.1878 deg
Mean anomaly: 072.8303 deg
Mean motion: 14.53227268 rev/day
Decay rate: 4.48e-06 rev/day^2
Epoch rev: 29982
Checksum: 313
Satellite: COMPASS
Catalog number: 32787
Epoch time: 12347.84203189
Element set: 489
Inclination: 097.7793 deg
RA of node: 045.0841 deg
Eccentricity: 0.0014536
Arg of perigee: 191.8864 deg
Mean anomaly: 168.1996 deg
Mean motion: 14.84764207 rev/day
Decay rate: 1.004e-05 rev/day^2
Epoch rev: 25031
Checksum: 327
Satellite: AAUSAT2
Catalog number: 32788
Epoch time: 12348.17355471
Element set: 481
Inclination: 097.7787 deg
RA of node: 045.8970 deg
Eccentricity: 0.0014110
Arg of perigee: 190.3719 deg
Mean anomaly: 169.7201 deg
Mean motion: 14.85157451 rev/day
Decay rate: 1.303e-05 rev/day^2
Epoch rev: 25039
Checksum: 310
Satellite: DO-64
Catalog number: 32789
Epoch time: 12347.87717894
Element set: 501
Inclination: 097.7933 deg
RA of node: 048.3908 deg
Eccentricity: 0.0014049
Arg of perigee: 186.6676 deg
Mean anomaly: 173.4365 deg
Mean motion: 14.87197893 rev/day
Decay rate: 3.206e-05 rev/day^2
Epoch rev: 25042
Checksum: 360
Satellite: CO-66
Catalog number: 32791
Epoch time: 12348.17919660
Element set: 478
Inclination: 097.7797 deg
RA of node: 044.9924 deg
Eccentricity: 0.0015158
Arg of perigee: 191.4183 deg
Mean anomaly: 168.6691 deg
Mean motion: 14.84042038 rev/day
Decay rate: 7.29e-06 rev/day^2
Epoch rev: 25028
Checksum: 351
Satellite: RS-30
Catalog number: 32953
Epoch time: 12348.61701560
Element set: 409
Inclination: 082.4993 deg
RA of node: 183.5671 deg
Eccentricity: 0.0018166
Arg of perigee: 278.8314 deg
Mean anomaly: 081.0707 deg
Mean motion: 12.43030134 rev/day
Decay rate: 1.0e-07 rev/day^2
Epoch rev: 20685
Checksum: 280
Satellite: PHARMSAT
Catalog number: 35002
Epoch time: 12226.86484473
Element set: 78
Inclination: 040.4341 deg
RA of node: 050.6671 deg
Eccentricity: 0.0012079
Arg of perigee: 300.9773 deg
Mean anomaly: 059.0492 deg
Mean motion: 16.39309245 rev/day
Decay rate: 7.728342e-02 rev/day^2
Epoch rev: 18355
Checksum: 302
Satellite: METEOR-M
Catalog number: 35865
Epoch time: 12348.80312658
Element set: 50
Inclination: 098.6313 deg
RA of node: 039.5324 deg
Eccentricity: 0.0001605
Arg of perigee: 254.9981 deg
Mean anomaly: 105.1015 deg
Mean motion: 14.21876305 rev/day
Decay rate: -3.2e-07 rev/day^2
Epoch rev: 16812
Checksum: 274
Satellite: RS-38
Catalog number: 35869
Epoch time: 12348.72638418
Element set: 18
Inclination: 098.6258 deg
RA of node: 039.4188 deg
Eccentricity: 0.0003762
Arg of perigee: 254.1358 deg
Mean anomaly: 105.9397 deg
Mean motion: 14.22103815 rev/day
Decay rate: 8.0e-08 rev/day^2
Epoch rev: 16813
Checksum: 325
Satellite: JUGNU
Catalog number: 37839
Epoch time: 12347.38644027
Element set: 290
Inclination: 019.9626 deg
RA of node: 358.6231 deg
Eccentricity: 0.0019577
Arg of perigee: 029.6554 deg
Mean anomaly: 330.4958 deg
Mean motion: 14.12113043 rev/day
Decay rate: 6.20e-06 rev/day^2
Epoch rev: 6046
Checksum: 298
Satellite: SRMSAT
Catalog number: 37841
Epoch time: 12348.39148200
Element set: 292
Inclination: 019.9710 deg
RA of node: 000.9457 deg
Eccentricity: 0.0011597
Arg of perigee: 356.2869 deg
Mean anomaly: 003.7478 deg
Mean motion: 14.10187765 rev/day
Decay rate: 2.64e-06 rev/day^2
Epoch rev: 6051
Checksum: 297
Satellite: RAX-2
Catalog number: 37853
Epoch time: 12348.24370033
Element set: 370
Inclination: 101.7066 deg
RA of node: 110.1094 deg
Eccentricity: 0.0241648
Arg of perigee: 199.8364 deg
Mean anomaly: 159.3318 deg
Mean motion: 14.81728589 rev/day
Decay rate: 5.833e-05 rev/day^2
Epoch rev: 6089
Checksum: 314
